JCSAT-2A

Last updated on Oct. 26, 2020, 5:52 a.m. UTC

1 27399U 02015A   20299.89402677 -.00000361  00000-0  00000-0 0  9994
2 27399   3.2072  84.2165 0002187 104.9480 290.8890  1.00393077 68242
UTC
Height (km)
Latitude
Longitude
Inclination
Orbital Period
UTC large
Height (km)
Speed (km/s)
/
Latitude / Longitude
Inclination (degrees)
Orbital Period (minutes)
Azimuth
Elevation
Range (km)
Doppler Factor
iOS Compass Heading
iOS Angle

Next 30 passes for location: Hong Kong

Rise time Rise Azimuth (degrees) Set time Set Azimuth (degrees) Duration Max altitude (degrees)

No matching passes for this satellites